Regional Weather Roundup
Issued by NWS Kansas City/Pleasant Hill, MO

Home | Current Version | Previous Version | Graphics & Text | Print | Product List | Glossary Off
Versions: 1 2 3 4 5 6 7 8 9 10 11 12 13 14 15 16 17 18 19 20 21 22 23 24 25 26 27 28

000
ASUS43 KEAX 270510
RWREAX

WEATHER ROUNDUP FOR EASTERN KANSAS AND NORTHWEST MISSOURI
NATIONAL WEATHER SERVICE KANSAS CITY/PLEASANT HILL MO
1200 AM CDT FRI MAY 27 2016

KSZ040-057-103>105-MOZ028-029-037-043-270600-
...KANSAS CITY METROPOLITAN AREA...

CITY           SKY/WX    TMP DP  RH WIND       PRES   REMARKS
K.C. INTL      LGT RAIN  62  60  93 NE10      29.86F
K.C. DOWNTOWN  RAIN      64  64 100 CALM      29.87R FOG
LEES SUMMIT    LGT RAIN  62  62 100 NE6       29.88R FOG
OLATHE - IXD   CLOUDY    63  62  97 NE14      29.84F
OLATHE - OJC   CLOUDY    62  60  93 NE13      29.86F
LAWRENCE       LGT RAIN  62  61  96 NE9       29.86F

$$

MOZ001>008-011>017-020>025-030>033-038>040-044>046-053-054-270600-
...NORTHERN AND CENTRAL MISSOURI...

CITY           SKY/WX    TMP DP  RH WIND       PRES   REMARKS
ST. JOSEPH     CLOUDY    63  60  90 E12       29.84F
MOSBY          CLOUDY    63  61  94 NE6       29.86F
WARRENSBURG    MOCLDY    61  61 100 NE3       29.86R
WHITEMAN AFB   CLOUDY    62  62 100 E3        29.85S
CLINTON        CLOUDY    64  64 100 E7        29.87R
SEDALIA        CLOUDY    64  63  96 MISG      29.86F
WARSAW         NOT AVBL
CHILLICOTHE      N/A     63  62  97 VRB5      29.88F
KIRKSVILLE     RAIN      63  62  97 NE13      29.88F

$$

MOZ041-047>049-056>058-063>065-088>090-097-270600-
...EASTERN AND SOUTHERN MISSOURI...

CITY           SKY/WX    TMP DP  RH WIND       PRES   REMARKS
ST. LOUIS INTL LGT RAIN  72  65  78 S7        29.94R
SPIRIT OF STL  LGT RAIN  71  67  87 VRB5      29.90R
COLUMBIA       CLOUDY    65  63  93 E13       29.88S
JEFFERSON CITY MOCLDY    65  63  93 E13       29.88F
ROLLA          CLOUDY    66  63  90 CALM      29.92R
SPRINGFIELD    PTCLDY    70  62  76 S10       29.86S
JOPLIN         CLOUDY    66  60  81 CALM      29.85R
WEST PLAINS    CLOUDY    68  64  87 SE12G20   29.94R

$$

IAZ060-094-KSZ022-034>040-054-083-096-NEZ052-066-093-270600-
...KANSAS...SOUTHEAST NEBRASKA AND IOWA...

CITY           SKY/WX    TMP DP  RH WIND       PRES   REMARKS
TOPEKA         LGT RAIN  63  61  93 E18       29.80F
MANHATTAN      TSTM      61  58  90 SW6       29.85S
EMPORIA        TSTM      63  60  90 E13       29.83S
CHANUTE        MOCLDY    67  62  84 NE7       29.84R
WICHITA        TSTM      61  59  93 NE21G30   29.81R FOG
OMAHA          CLOUDY    66  56  70 SE26G38   29.78R
LINCOLN        LGT RAIN  63  56  78 S16       29.84R
FALLS CITY     HVY RAIN  62  32  32 E24G33    29.81F
LAMONI         LGT RAIN  61  61 100 W5        29.90F
DES MOINES     LGT RAIN  65  58  78 S12       29.85F

$$





USA.gov is the U.S. government's official web portal to all federal, state and local government web resources and services.